This demonstration page uses our WeatherBlox Daily Observations layout. Learn more.

40.92945, -100.16068

Hourly Observations for March 26, 2015

Temp ( °F °C ) Dew Point ( °F °C ) Humidity (%) Winds ( mph kmh ) Pressure ( in mb ) Visibility ( mi km ) Precip ( " mm )
12:15 am 00:15 Clear 26 -3.3 19 -7.1 75 75 Calm 30.36 1028 10 16.0934 N/A
12:35 am 00:35 Clear 23 -4.9 18 -8 79 79 W 6 9 30.39 1029 10 16.0934 N/A
12:55 am 00:55 Clear 25 -3.8 19 -7.4 76 76 WNW 3 6 30.39 1029 10 16.0934 N/A
1:15 am 01:15 Clear 25 -3.8 19 -7.2 78 78 WNW 6 9 30.39 1029 10 16.0934 N/A
1:35 am 01:35 Clear 23 -4.9 17 -8.2 78 78 WNW 3 6 30.39 1029 10 16.0934 N/A
1:55 am 01:55 Clear 23 -4.8 18 -7.9 79 79 NW 5 7 30.39 1029 10 16.0934 N/A
2:15 am 02:15 Clear 22 -5.6 17 -8.2 82 82 WNW 5 7 30.39 1029 10 16.0934 N/A
2:35 am 02:35 Clear 22 -5.5 18 -7.9 83 83 WNW 8 13 30.39 1029 10 16.0934 N/A
2:55 am 02:55 Clear 22 -5.5 18 -7.6 85 85 WNW 7 11 30.39 1029 10 16.0934 N/A
3:15 am 03:15 Clear 22 -5.3 18 -7.7 83 83 WNW 8 13 30.39 1029 10 16.0934 N/A
3:35 am 03:35 Clear 21 -6.2 17 -8.3 85 85 WNW 5 7 30.39 1029 10 16.0934 N/A
3:55 am 03:55 Clear 20 -6.4 17 -8.2 87 87 WNW 6 9 30.39 1029 10 16.0934 N/A
4:15 am 04:15 Clear 21 -6.1 17 -8.4 84 84 WNW 7 11 30.39 1029 10 16.0934 N/A
4:35 am 04:35 Clear 20 -6.5 17 -8.5 86 86 NW 3 6 30.39 1029 10 16.0934 N/A
4:55 am 04:55 Clear 20 -6.4 17 -8.5 85 85 Calm 30.39 1029 10 16.0934 N/A
5:15 am 05:15 Clear 21 -6 17 -8.3 84 84 WNW 3 6 30.39 1029 10 16.0934 N/A
5:35 am 05:35 Clear 21 -6.2 17 -8.1 87 87 Calm 30.39 1029 10 16.0934 N/A
5:55 am 05:55 Clear 21 -6.2 18 -7.8 89 89 NW 6 9 30.39 1029 10 16.0934 N/A
6:15 am 06:15 Clear 19 -7.5 16 -9.1 88 88 WNW 5 7 30.42 1030 10 16.0934 N/A
6:35 am 06:35 Clear 19 -7.3 16 -8.9 88 88 NW 5 7 30.42 1030 10 16.0934 N/A
6:55 am 06:55 Clear 17 -8.4 13 -10.5 85 85 NW 6 9 30.42 1030 10 16.0934 N/A
7:15 am 07:15 Clear 18 -7.9 14 -9.8 86 86 WNW 7 11 30.42 1030 10 16.0934 N/A
7:35 am 07:35 Sunny 17 -8.5 14 -10.2 88 88 NW 3 6 30.42 1030 7 11.26538 N/A
7:55 am 07:55 Sunny 18 -7.8 15 -9.5 88 88 Calm 30.39 1029 7 11.26538 N/A
8:15 am 08:15 Sunny 21 -6.3 17 -8.2 87 87 Calm 30.36 1028 10 16.0934 N/A
8:35 am 08:35 Sunny 23 -4.8 20 -6.8 86 86 Calm 30.36 1028 10 16.0934 N/A
8:55 am 08:55 Sunny 26 -3.4 22 -5.6 85 85 Calm 30.33 1027 10 16.0934 N/A
9:15 am 09:15 Sunny 28 -2.4 23 -5 83 83 Calm 30.33 1027 10 16.0934 N/A
9:35 am 09:35 Sunny 30 -1 24 -4.4 78 78 Calm 30.33 1027 10 16.0934 N/A
9:55 am 09:55 Partly Cloudy 33 0.5 26 -3.3 76 76 Calm 30.27 1025 10 16.0934 N/A
10:15 am 10:15 Partly Cloudy 35 1.9 26 -3.1 70 70 S 3 6 30.27 1025 10 16.0934 N/A
10:35 am 10:35 Partly Cloudy 38 3.6 27 -2.7 64 64 SSW 5 7 30.24 1024 10 16.0934 N/A
10:55 am 10:55 Mostly Cloudy 42 5.3 26 -3.6 53 53 SSW 10 17 30.24 1024 10 16.0934 N/A
11:15 am 11:15 Cloudy 42 5.8 25 -3.7 51 51 SSW 14 22 30.18 1022 10 16.0934 N/A
11:35 am 11:35 Mostly Cloudy 44 6.5 26 -3.5 49 49 SSW 13 20 30.18 1022 10 16.0934 N/A
11:55 am 11:55 Cloudy 44 6.6 25 -3.7 48 48 SSW 14 22 30.15 1021 10 16.0934 N/A
12:15 pm 12:15 Cloudy 45 7 25 -3.8 46 46 SSW 13 20 30.15 1021 10 16.0934 N/A
12:35 pm 12:35 Cloudy 46 7.6 26 -3.5 46 46 SSW 13 20 30.12 1020 10 16.0934 N/A
12:55 pm 12:55 Cloudy 47 8.3 27 -2.7 46 46 SSW 12 19 30.09 1019 10 16.0934 N/A
1:15 pm 13:15 Cloudy 48 9.1 28 -2.2 45 45 SSW 14 22 30.09 1019 10 16.0934 N/A
1:35 pm 13:35 Cloudy 50 10.1 29 -1.7 44 44 SW 12 19 30.09 1019 10 16.0934 N/A
1:55 pm 13:55 Partly Cloudy 55 12.6 29 -1.5 38 38 WSW 15 24 30.03 1017 10 16.0934 N/A
2:15 pm 14:15 Partly Cloudy 57 13.7 29 -1.8 34 34 WSW 12 19 30 1016 10 16.0934 N/A
2:35 pm 14:35 Mostly Cloudy 58 14.5 28 -2 32 32 WNW 16 26 30 1016 10 16.0934 N/A
2:55 pm 14:55 Mostly Cloudy 58 14.5 28 -2.5 31 31 WNW 16 26 29.97 1015 10 16.0934 N/A
3:15 pm 15:15 Cloudy 58 14.3 27 -2.7 31 31 WNW 18 30 29.97 1015 10 16.0934 N/A
3:35 pm 15:35 Cloudy 58 14.3 27 -2.7 31 31 WNW 17 28 29.97 1015 10 16.0934 N/A
3:55 pm 15:55 Cloudy 59 14.9 26 -3.6 28 28 NNW 26 43 29.97 1015 10 16.0934 N/A
4:15 pm 16:15 Mostly Cloudy 60 15.3 26 -3.6 27 27 NNW 23 37 29.97 1015 10 16.0934 N/A
4:35 pm 16:35 Mostly Cloudy 58 14.5 26 -3.2 29 29 N 26 43 29.97 1015 10 16.0934 N/A
4:55 pm 16:55 Partly Cloudy 57 14 29 -1.8 34 34 N 24 39 29.97 1015 10 16.0934 N/A
5:15 pm 17:15 Partly Cloudy 58 14.2 29 -1.8 33 33 N 29 46 30 1016 10 16.0934 N/A
5:35 pm 17:35 Partly Cloudy 56 13.3 30 -0.9 38 38 N 21 33 30.03 1017 10 16.0934 N/A
5:55 pm 17:55 Partly Cloudy 56 13.5 30 -1.1 37 37 NNW 23 37 30 1016 10 16.0934 N/A
6:15 pm 18:15 Partly Cloudy 55 12.8 29 -1.7 37 37 NNW 22 35 30.03 1017 10 16.0934 N/A
6:35 pm 18:35 Sunny 56 13.1 28 -2.3 35 35 N 23 37 30.03 1017 10 16.0934 N/A
6:55 pm 18:55 Sunny 55 12.6 26 -3.1 34 34 N 26 43 30.03 1017 10 16.0934 N/A
7:15 pm 19:15 Sunny 52 11.1 26 -3.3 37 37 N 23 37 30.03 1017 10 16.0934 N/A
7:35 pm 19:35 Partly Cloudy 49 9.5 28 -2.5 43 43 N 20 31 30.09 1019 10 16.0934 N/A
7:55 pm 19:55 Cloudy 43 6.3 31 -0.6 62 62 NE 24 39 30.15 1021 10 16.0934 N/A
8:15 pm 20:15 Cloudy 39 4 31 -0.6 72 72 NE 20 31 30.21 1023 10 16.0934 N/A
8:35 pm 20:35 Cloudy 38 3.2 31 -0.8 75 75 NE 18 30 30.24 1024 10 16.0934 N/A
8:55 pm 20:55 Cloudy 37 3 31 -0.8 76 76 NE 14 22 30.24 1024 10 16.0934 N/A
9:15 pm 21:15 Cloudy 37 2.8 30 -1 76 76 ENE 9 15 30.24 1024 10 16.0934 N/A
9:35 pm 21:35 Cloudy 37 2.5 30 -1 78 78 NE 12 19 30.27 1025 10 16.0934 N/A
9:55 pm 21:55 Cloudy 36 2.2 30 -1.2 78 78 NE 12 19 30.3 1026 10 16.0934 N/A
10:15 pm 22:15 Cloudy 36 2 30 -1.3 79 79 NE 9 15 30.3 1026 10 16.0934 N/A
10:35 pm 22:35 Cloudy 35 1.6 29 -1.7 79 79 NE 9 15 30.3 1026 10 16.0934 N/A
10:55 pm 22:55 Cloudy 34 1.3 28 -2.1 78 78 NE 12 19 30.3 1026 10 16.0934 N/A
11:15 pm 23:15 Cloudy 34 1 28 -2.4 78 78 NE 9 15 30.3 1026 10 16.0934 N/A
11:35 pm 23:35 Cloudy 34 0.9 28 -2.4 79 79 NE 7 11 30.3 1026 10 16.0934 N/A
11:55 pm 23:55 Cloudy 33 0.7 28 -2.2 81 81 NE 9 15 30.3 1026 10 16.0934 N/A

Powered by AerisWeather